GW4712 Weather Reports


Display with metric or nautical units.
time (UTC)temp
F
wind
direction
speed
MPH
gust
MPH
rain 1hr
in
rain 24hr
in
rain mn
in
humidity
%
barometer
mb
20260503214522 61 317 3.0 6.0 0.00 0.00 0.00 37 1015.8
20260503214018 61 181 5.0 7.0 0.00 0.00 0.00 30 1015.9
20260503213517 61 223 3.0 7.0 0.00 0.00 0.00 33 1015.7
20260503213013 61 330 2.0 11.0 0.00 0.00 0.00 32 1015.8
20260503212511 61 170 5.0 7.0 0.00 0.00 0.00 33 1015.6
20260503212008 61 270 2.0 6.0 0.00 0.00 0.00 31 1015.8
20260503211505 61 313 6.0 14.0 0.00 0.00 0.00 34 1015.8
20260503211000 61 266 2.0 4.0 0.00 0.00 0.00 32 1015.8
20260503210457 60 310 8.0 9.0 0.00 0.00 0.00 36 1015.8
20260503205951 61 288 1.0 3.0 0.00 0.00 0.00 34 1016.0
20260503205449 60 307 1.0 8.0 0.00 0.00 0.00 38 1015.9
20260503204945 61 310 6.0 15.0 0.00 0.00 0.00 33 1015.8
20260503204443 61 314 5.0 7.0 0.00 0.00 0.00 37 1015.9
20260503203939 60 313 4.0 10.0 0.00 0.00 0.00 38 1016.0
20260503203437 60 309 3.0 4.0 0.00 0.00 0.00 36 1016.2
20260503202933 60 250 6.0 10.0 0.00 0.00 0.00 34 1016.1
20260503202432 61 319 1.0 6.0 0.00 0.00 0.00 33 1016.4
20260503201930 60 312 5.0 11.0 0.00 0.00 0.00 34 1016.5
20260503201426 60 324 4.0 9.0 0.00 0.00 0.00 34 1016.5
20260503200924 61 298 6.0 7.0 0.00 0.00 0.00 35 1016.6
20260503200420 62 323 1.0 3.0 0.00 0.00 0.00 40 1016.7
20260503195917 60 307 2.0 8.0 0.00 0.00 0.00 34 1016.9
20260503195415 60 255 4.0 11.0 0.00 0.00 0.00 35 1016.9
20260503194911 60 251 2.0 8.0 0.00 0.00 0.00 35 1016.9
20260503194408 61 313 9.0 10.0 0.00 0.00 0.00 38 1017.0
20260503193904 59 270 5.0 7.0 0.00 0.00 0.00 37 1017.2
20260503193359 60 313 3.0 7.0 0.00 0.00 0.00 33 1017.4
20260503192855 60 312 8.0 11.0 0.00 0.00 0.00 33 1017.4
20260503192351 60 312 6.0 9.0 0.00 0.00 0.00 34 1017.6
20260503191847 60 307 2.0 2.0 0.00 0.00 0.00 34 1017.5
20260503191345 59 261 3.0 8.0 0.00 0.00 0.00 31 1017.7
20260503190841 59 264 9.0 13.0 0.00 0.00 0.00 33 1017.9
20260503190338 61 313 5.0 9.0 0.00 0.00 0.00 38 1018.0
20260503185835 61 62 2.0 8.0 0.00 0.00 0.00 38 1018.0
20260503185331 60 316 3.0 7.0 0.00 0.00 0.00 37 1017.9
20260503184831 59 140 0.0 2.0 0.00 0.00 0.00 38 1017.9
20260503184327 59 243 3.0 14.0 0.00 0.00 0.00 33 1018.1
20260503183823 58 191 1.0 3.0 0.00 0.00 0.00 37 1018.1
20260503183321 58 33 1.0 6.0 0.00 0.00 0.00 33 1018.3
20260503182818 56 255 4.0 7.0 0.00 0.00 0.00 35 1018.2
20260503182317 56 275 3.0 10.0 0.00 0.00 0.00 37 1018.1
20260503181814 57 255 5.0 9.0 0.00 0.00 0.00 35 1018.3
20260503181311 56 225 2.0 3.0 0.00 0.00 0.00 37 1018.2
20260503180807 56 257 4.0 8.0 0.00 0.00 0.00 36 1018.3
20260503180305 58 223 3.0 6.0 0.00 0.00 0.00 34 1018.5
20260503175801 58 73 3.0 4.0 0.00 0.00 0.00 36 1018.6
20260503175300 57 325 2.0 4.0 0.00 0.00 0.00 39 1018.6
20260503174755 56 231 7.0 8.0 0.00 0.00 0.00 37 1018.9
20260503174253 58 319 10.0 11.0 0.00 0.00 0.00 44 1018.7
20260503173748 57 93 1.0 2.0 0.00 0.00 0.00 39 1018.8
20260503173244 57 106 1.0 3.0 0.00 0.00 0.00 35 1018.7
20260503172741 58 332 2.0 7.0 0.00 0.00 0.00 37 1018.9
20260503172238 56 314 4.0 14.0 0.00 0.00 0.00 40 1019.2
20260503171735 55 56 1.0 4.0 0.00 0.00 0.00 39 1019.1
20260503171232 55 75 2.0 4.0 0.00 0.00 0.00 41 1019.1
20260503170729 55 250 0.0 6.0 0.00 0.00 0.00 38 1019.2
20260503170226 56 313 4.0 11.0 0.00 0.00 0.00 46 1019.3
20260503160147 54 320 4.0 9.0 0.00 0.00 0.00 43 1020.3
20260503150618 51 217 3.0 14.0 0.00 0.00 0.00 47 1020.4
20260503150114 50 288 8.0 10.0 0.00 0.00 0.00 46 1020.4
20260503131008 44 355 0.0 0.0 0.00 0.00 0.00 75 1020.5
20260503130505 44 356 0.0 0.0 0.00 0.00 0.00 78 1020.4
20260503110401 28 294 0.0 0.0 0.00 0.00 0.00 98 1019.5
20260503090252 28 294 0.0 0.0 0.00 0.00 0.00 98 1018.8
20260503081219 29 294 0.0 0.0 0.00 0.00 0.00 98 1018.5
20260503080715 29 294 0.0 0.0 0.00 0.00 0.00 98 1018.4
20260503080212 29 294 0.0 0.0 0.00 0.00 0.00 98 1018.6
20260503072649 29 294 0.0 0.0 0.00 0.00 0.00 97 1018.4
20260503072145 29 294 0.0 0.0 0.00 0.00 0.00 97 1018.2
20260503071642 29 294 0.0 0.0 0.00 0.00 0.00 97 1018.3
20260503071139 29 294 0.0 0.0 0.00 0.00 0.00 97 1018.1
20260503070636 29 294 0.0 0.0 0.00 0.00 0.00 97 1018.0
20260503070134 30 294 0.0 0.0 0.00 0.00 0.00 97 1018.0
20260503055050 31 294 0.0 0.0 0.00 0.00 0.00 97 1018.2
20260503054545 31 294 0.0 0.0 0.00 0.00 0.00 97 1018.3
20260503054043 31 294 0.0 0.0 0.00 0.00 0.00 97 1018.3
20260503053541 31 294 0.0 0.0 0.00 0.00 0.00 97 1018.3
20260503053039 31 294 0.0 0.0 0.00 0.00 0.00 96 1018.2
20260503052535 31 294 0.0 0.0 0.00 0.00 0.00 96 1018.1
20260503052031 31 294 0.0 0.0 0.00 0.00 0.00 96 1018.3
20260503051527 32 294 0.0 0.0 0.00 0.00 0.00 96 1018.1
20260503051025 31 294 0.0 0.0 0.00 0.00 0.00 96 1018.1
20260503050520 32 294 0.0 0.0 0.00 0.00 0.00 96 1018.1
20260503050018 32 294 0.0 0.0 0.00 0.00 0.00 96 1018.2
20260503045515 32 294 0.0 0.0 0.00 0.00 0.00 96 1018.1
20260503045012 32 294 0.0 0.0 0.00 0.00 0.00 96 1018.1
20260503044509 32 294 0.0 0.0 0.00 0.00 0.00 96 1018.1
20260503044007 33 294 0.0 0.0 0.00 0.00 0.00 95 1018.0
20260503043503 32 294 0.0 0.0 0.00 0.00 0.00 95 1018.1
20260503042959 33 294 0.0 0.0 0.00 0.00 0.00 95 1017.9
20260503042456 33 294 0.0 0.0 0.00 0.00 0.00 95 1018.1
20260503041952 33 294 0.0 0.0 0.00 0.00 0.00 95 1018.0
20260503041449 33 294 0.0 0.0 0.00 0.00 0.00 95 1018.0
20260503040947 33 294 0.0 0.0 0.00 0.00 0.00 94 1018.1
20260503040444 34 294 0.0 0.0 0.00 0.00 0.00 94 1018.0
20260503035941 33 294 0.0 0.0 0.00 0.00 0.00 94 1018.0
20260503035438 33 294 0.0 0.0 0.00 0.00 0.00 94 1018.1
20260503034936 34 294 0.0 0.0 0.00 0.00 0.00 94 1018.0
20260503034433 34 294 0.0 0.0 0.00 0.00 0.00 93 1017.9
20260503033929 34 294 0.0 0.0 0.00 0.00 0.00 93 1018.0
20260503033426 35 294 0.0 0.0 0.00 0.00 0.00 93 1018.1
20260503032924 35 294 0.0 0.0 0.00 0.00 0.00 92 1018.0
20260503032423 35 294 0.0 0.0 0.00 0.00 0.00 92 1018.0
20260503031920 35 294 0.0 0.0 0.00 0.00 0.00 92 1018.1
20260503031418 36 294 0.0 1.0 0.00 0.00 0.00 92 1018.0
20260503030915 36 294 0.0 1.0 0.00 0.00 0.00 91 1018.1
20260503030411 36 294 0.0 0.0 0.00 0.00 0.00 90 1018.1
20260503025908 37 294 0.0 0.0 0.00 0.00 0.00 89 1017.9
20260503025405 37 294 0.0 0.0 0.00 0.00 0.00 87 1018.0
20260503024902 37 294 0.0 0.0 0.00 0.00 0.00 87 1017.9
20260503024358 38 294 0.0 0.0 0.00 0.00 0.00 85 1017.9
20260503023855 38 294 0.0 0.0 0.00 0.00 0.00 84 1017.9
20260503023347 39 294 0.0 1.0 0.00 0.00 0.00 83 1017.9
20260503022843 39 256 0.0 0.0 0.00 0.00 0.00 82 1018.1
20260503022338 40 296 0.0 0.0 0.00 0.00 0.00 81 1018.1
20260503021835 41 297 0.0 1.0 0.00 0.00 0.00 79 1017.8
20260503021331 41 297 0.0 2.0 0.00 0.00 0.00 76 1017.8
20260503020829 41 289 0.0 2.0 0.00 0.00 0.00 75 1017.6
20260503020327 42 323 0.0 2.0 0.00 0.00 0.00 74 1017.9
20260503015822 42 32 0.0 1.0 0.00 0.00 0.00 73 1017.8
20260503015320 43 127 0.0 1.0 0.00 0.00 0.00 70 1017.9
20260503014815 43 305 1.0 2.0 0.00 0.00 0.00 72 1017.8
20260503014313 43 351 0.0 2.0 0.00 0.00 0.00 71 1017.7
20260503013810 43 310 0.0 0.0 0.00 0.00 0.00 72 1017.6
20260503013308 44 324 0.0 1.0 0.00 0.00 0.00 69 1017.5
20260503012805 44 28 0.0 1.0 0.00 0.00 0.00 69 1017.6
20260503012305 44 24 0.0 4.0 0.00 0.00 0.00 67 1017.4
20260503011759 44 32 1.0 1.0 0.00 0.00 0.00 68 1017.4
20260503011256 44 25 0.0 1.0 0.00 0.00 0.00 68 1017.4
20260503010752 44 26 1.0 2.0 0.00 0.00 0.00 65 1017.1
20260503010249 44 8 0.0 2.0 0.00 0.00 0.00 65 1017.2
20260503005746 45 357 2.0 2.0 0.00 0.00 0.00 62 1017.2
20260503005244 46 331 1.0 2.0 0.00 0.00 0.00 60 1017.0
20260503004739 46 359 2.0 3.0 0.00 0.00 0.00 61 1016.9
20260503004238 46 5 1.0 2.0 0.00 0.00 0.00 59 1016.7
20260503003735 46 2 2.0 3.0 0.00 0.00 0.00 57 1016.5
20260503003232 47 7 1.0 3.0 0.00 0.00 0.00 57 1016.6
20260503002728 47 321 3.0 4.0 0.00 0.00 0.00 58 1016.5
20260503002225 47 319 2.0 2.0 0.00 0.00 0.00 58 1016.5
20260503001721 47 12 0.0 1.0 0.00 0.00 0.00 56 1016.2
20260503001218 47 17 1.0 1.0 0.00 0.00 0.00 55 1016.4
20260503000716 48 355 1.0 1.0 0.00 0.00 0.00 55 1016.3
20260503000213 49 350 0.0 2.0 0.00 0.00 0.00 52 1016.1
20260502235710 49 312 3.0 6.0 0.00 0.00 0.00 52 1016.1
20260502235208 49 311 2.0 3.0 0.00 0.00 0.00 51 1016.0
20260502234704 49 318 0.0 2.0 0.00 0.00 0.00 53 1016.0
20260502234201 49 303 1.0 2.0 0.00 0.00 0.00 53 1016.0
20260502233657 50 320 1.0 3.0 0.00 0.00 0.00 49 1015.9
20260502233154 50 321 1.0 4.0 0.00 0.00 0.00 50 1016.0
20260502232649 51 318 2.0 6.0 0.00 0.00 0.00 52 1016.1
20260502232147 51 312 4.0 10.0 0.00 0.00 0.00 48 1015.7
20260502231643 51 350 3.0 4.0 0.00 0.00 0.00 47 1015.7
20260502231141 51 358 1.0 2.0 0.00 0.00 0.00 49 1015.6
20260502230639 51 314 0.0 3.0 0.00 0.00 0.00 49 1015.6
20260502230132 52 37 4.0 7.0 0.00 0.00 0.00 49 1015.4
20260502225627 53 315 4.0 6.0 0.00 0.00 0.00 46 1015.5
20260502225125 51 32 1.0 2.0 0.00 0.00 0.00 48 1015.7
20260502224621 52 21 3.0 6.0 0.00 0.00 0.00 45 1015.5
20260502224118 53 2 3.0 6.0 0.00 0.00 0.00 43 1015.4
20260502223615 53 314 4.0 7.0 0.00 0.00 0.00 44 1015.4
20260502223114 52 326 4.0 6.0 0.00 0.00 0.00 43 1015.4
20260502222611 54 323 1.0 3.0 0.00 0.00 0.00 43 1015.3
20260502222107 52 3 3.0 6.0 0.00 0.00 0.00 44 1015.2
20260502221603 53 312 3.0 4.0 0.00 0.00 0.00 45 1015.3
20260502221100 52 309 2.0 3.0 0.00 0.00 0.00 44 1015.1
20260502220556 52 313 6.0 9.0 0.00 0.00 0.00 46 1015.2
20260502220053 52 346 1.0 4.0 0.00 0.00 0.00 43 1015.2
20260502215550 52 316 6.0 8.0 0.00 0.00 0.00 45 1014.9
20260502215047 52 313 5.0 10.0 0.00 0.00 0.00 45 1014.8